Location: Seattle
(47.6060°N, 122.3310°W)
Time: 03:11:15
(UTC-07:00)

ISS - Visible Passes

Search period start: 29 July 2016 00:00
Search period end: 08 August 2016 00:00
Orbit: 401 x 404 km, 51.6° (Epoch: 29 July)

Date Brightness Start Highest point End Pass type
(mag) Time Alt. Az. Time Alt. Az. Time Alt. Az.
29 Jul -1.9 00:40:01 10° WNW 00:43:06 38° N 00:43:21 38° NNE visible
29 Jul -3.3 22:10:05 10° WSW 22:13:20 84° NNW 22:16:37 10° ENE visible
29 Jul -1.9 23:46:56 10° WNW 23:50:01 39° N 23:51:55 20° ENE visible
30 Jul -0.8 01:23:36 10° WNW 01:24:29 17° WNW 01:24:29 17° WNW visible
30 Jul -3.3 21:17:12 10° SW 21:20:25 63° SSE 21:23:39 10° ENE visible
30 Jul -2.1 22:53:50 10° W 22:56:58 43° N 23:00:07 10° ENE visible
31 Jul -1.9 00:30:38 10° WNW 00:33:08 38° NNW 00:33:08 38° NNW visible
31 Jul -2.6 22:00:43 10° W 22:03:56 54° NNW 22:07:09 10° ENE visible
31 Jul -2.0 23:37:37 10° WNW 23:40:44 39° N 23:41:50 29° NE visible
01 Aug -0.4 01:14:08 10° WNW 01:14:25 12° WNW 01:14:25 12° WNW visible
01 Aug -1.9 22:44:34 10° WNW 22:47:39 38° N 22:50:32 11° ENE visible
02 Aug -1.6 00:21:11 10° WNW 00:23:07 31° NW 00:23:07 31° NW visible
02 Aug -2.1 21:51:27 10° W 21:54:35 42° N 21:57:43 10° ENE visible
02 Aug -2.5 23:28:14 10° WNW 23:31:25 46° NNE 23:31:51 43° NE visible
03 Aug -2.1 22:35:14 10° WNW 22:38:21 40° N 22:40:35 16° ENE visible
04 Aug -1.3 00:11:43 10° WNW 00:13:10 24° WNW 00:13:10 24° WNW visible
04 Aug -2.0 21:42:11 10° WNW 21:45:16 38° N 21:48:21 10° ENE visible
04 Aug -3.1 23:18:46 10° WNW 23:21:56 66° N 23:21:56 66° N visible
05 Aug -2.6 22:25:48 10° WNW 22:29:00 49° NNE 22:30:42 23° E visible
06 Aug -0.9 00:02:18 10° WNW 00:03:17 18° W 00:03:17 18° W visible
06 Aug -2.2 21:32:48 10° WNW 21:35:56 41° N 21:39:03 10° E visible
06 Aug -3.0 23:09:16 10° WNW 23:12:05 61° W 23:12:05 61° W visible
07 Aug -3.3 22:16:18 10° WNW 22:19:35 73° NNE 22:20:55 32° E visible
07 Aug -0.5 23:53:06 10° W 23:53:30 12° W 23:53:30 12° W visible
